User: anonymous   Login
Location: Stoke Bliss
(52.2667°N, 2.5167°W)
Time: 21:40:58
(UTC+00:00)
Language:

Helios 1A Rocket - Orbit

View from above orbital plane
View from above orbital plane
View from above satellite
View from above satellite

Ground track
Ground track

The orbit data is extracted from the following two-line orbital elements,

1 23608U 95033D   21134.88765152 -.00000037  00000-0  26183-5 0  9998
2 23608  98.2944 173.3079 0015639 223.9278 136.0700 14.97672181401046
Epoch (UTC): 14 May 2021 21:18:13
Eccentricity: 0.0015639
inclination: 98.2944°
perigee height: 563 km
apogee height: 585 km
right ascension of ascending node: 173.3079°
argument of perigee: 223.9278°
revolutions per day: 14.97672181
mean anomaly at epoch: 136.0700°
orbit number at epoch: 40104

The dashed part of the orbit path shows where the satellite is in the earth's shadow,  

DLR